Miscellaneous Local Product
Issued by NWS North Platte, NE

Home | Current Version | Previous Version | Text Only | Print | Product List | Glossary On
Versions: 1 2 3 4 5 6 7 8 9 10 11 12 13 14 15 16 17 18 19 20 21 22 23 24 25 26 27 28 29 30 31 32 33 34 35 36 37 38 39 40 41 42 43 44 45 46 47 48 49 50
000
AXUS43 KLBF 220010
MISLBF


WESTERN AND NORTH CENTRAL NEBRASKA HOURLY WEATHER ROUNDUP
NATIONAL WEATHER SERVICE NORTH PLATTE NE
600 PM CST TUE FEB 21 2017

NOTE: "FAIR" INDICATES FEW OR NO CLOUDS BELOW 12,000 FEET WITH NO
SIGNIFICANT WEATHER AND/OR OBSTRUCTIONS TO VISIBILITY.

NOTE: STATIONS NOT REPORTING VARIABLES SUCH AS SKY/WEATHER OR
PRESSURE ARE PROVIDED BY RAWS AND APRS NETWORKS AND ARE NOT UNDER
NATIONAL WEATHER SERVICE QUALITY CONTROL.

...OBSERVATIONS IN AND NEAR THE EASTERN PANHANDLE OF NEBRASKA...

CITY           SKY/WX    TMP DP  RH WIND       PRES   REMARKS
PINE RIDGE     CLEAR     66  28  24 W17G24    29.75S
CHADRON        CLEAR     65  24  21 W22G30    29.76S
ALLIANCE       CLEAR     66  18  15 W24G31    29.81F
SIDNEY         CLEAR     67  11  11 W18       29.88F
$$

...OBSERVATIONS IN NORTHERN NEBRASKA AND FAR SOUTHERN SOUTH DAKOTA...

CITY           SKY/WX    TMP DP  RH WIND       PRES   REMARKS
WINNER         FAIR      69  35  28 W7        29.67S
VALENTINE      CLEAR     69  27  20 W13       29.72F
THEDFORD       CLEAR     72  27  18 W17G28    29.78S
AINSWORTH      CLEAR     67  34  30 W6        29.74S
O`NEILL        CLEAR     69  34  27 SW6       29.73F
ORD            CLEAR     70  28  21 SW6       29.75F
BROKEN BOW     CLEAR     70  31  23 W8        29.78F
VALENTINE NWR    N/A     72  30  21 NW10G23     N/A
BUTTE            N/A     70  37  29 SW3         N/A
HALSEY           N/A     75  24  15 W9G25       N/A
CHAMBERS         N/A     65  32  29 CALM        N/A
EWING            N/A     68  39  34 W3          N/A
$$

...OBSERVATIONS IN SOUTHWEST NEBRASKA AND FAR NORTHEAST COLORADO...

CITY           SKY/WX    TMP DP  RH WIND       PRES   REMARKS
HOLYOKE        FAIR      73  16  11 W9        29.88S
IMPERIAL       CLEAR     71  14  11 W6        29.85F
OGALLALA       CLEAR     71  18  13 W12       29.84S
NORTH PLATTE   CLEAR     71  24  17 W10       29.81S
MCCOOK         CLEAR     72  26  18 SW8       29.84F
LEXINGTON      CLEAR     70  29  21 SW7       29.81F
STAPLETON        N/A     68  30  24 CALM        N/A
GOTHENBURG       N/A     75  24  15 W5          N/A
CALLAWAY         N/A     69  32  25 W6          N/A
$$

...OBSERVATIONS IN CENTRAL LINCOLN COUNTY AREA...

CITY           SKY/WX    TMP DP  RH WIND       PRES   REMARKS
N.P. AIRPORT   CLEAR     71  24  17 W10       29.81S
N.P. DOWNTOWN    N/A     72  26  18 W3          N/A
N.P. SOUTHEAST   N/A     74  25  16 W3          N/A
N.P. HILLCREST   N/A     72  26  18 NW7G14      N/A
$$

...SOME OBSERVATIONS FROM AROUND THE REGION...

CITY           SKY/WX    TMP DP  RH WIND       PRES   REMARKS
LARAMIE        CLOUDY    47  22  37 SW21G30   29.97F
CHEYENNE       CLEAR     56  17  21 W20G28    29.96F
DENVER         CLOUDY    67  13  12 S12       29.97S
AKRON          CLEAR     67  12  12 NW14      29.92F
SCOTTSBLUFF    CLEAR     68  18  14 W18G31    29.83S
RAPID CITY     CLEAR     66  26  22 W29G37    29.66S
BISMARCK       PTCLDY    46  37  71 NE6       29.65S
PIERRE         CLEAR     60  36  40 SE8       29.61F
SIOUX FALLS    PTCLDY    58  40  51 CALM      29.70F
OMAHA          PTCLDY    67  37  33 S13       29.81S
GRAND ISLAND   CLEAR     69  34  27 W7        29.80S
KANSAS CITY    CLEAR     67  30  25 CALM      29.90S
WICHITA        PTCLDY    63  38  39 S6        29.91F
OKLAHOMA CITY  CLEAR     66  34  30 NW7       29.93S
DALLAS         PTCLDY    73  43  33 NW12      29.90R
AMARILLO       CLEAR     71  22  15 S9        30.03R
DODGE CITY     CLEAR     71  21  15 S7        29.92R
HAYS             N/A     71  28  20 S8        29.88S
GOODLAND       CLEAR     73  18  12 W3        29.90F
$$




USA.gov is the U.S. government's official web portal to all federal, state and local government web resources and services.